Probability
0 0 0 0 0 0 0 0 0 0 0 0 0 0 0 0 0 0 0 0 0 0 0 0 0 0 0 0 0 0 0 0 0 0 0 0 0 0 0 0 0 0 0 0
0 0 0 0 0 0 0 0 0 0 0 0 0 0 0 0 0 0 0 0 0 0 0 0 0 0 0 0 0 0 0 0 0 0 0 0 0 0 0 0 0 0 0 0
0 0 0 0 0 0 0 0 0 0 0 0 0 0 0 0 0 0 0 0 0 0 0 0 0 0 0 0 0 0 0 0 0 0 0 0 0 0 0 0 0 0 0 0
0 0 0 0 0 0 0 0 0 0 0 0 0 0 0 0 0 0 0 0 0 0 0 0 0 0 0 0 0 0 0 0 0 0 0 0 0 0 0 0 0 0 0 0
0 0 0 0 0 0 0 0 0 0 0 0 0 0 0 0 0 0 0 0 0 0 0 0 0 0 0 0 0 0 0 0 0 0 0 0 0 0 0 0 0 0 0 0
0 0 0 0 0 0 0 0 0 0 0 0 0 0 0 0 0 0 0 0 0 0 0 0 0 0 0 0 0 0 0 0 0 0 0 0 0 0 0 0 0 0 0 0
0 0 0 0 0 0 0 0 0 0 0 0 0 0 0 0 0 0 0 0 0 0 0 0 0 0 0 0 0 0 0 0 0 0 0 0 0 0 0 0 0 0 0 0
0 0 0 0 0 0 0 0 0 0 0 0 0 0 0 0 0 0 0 0 0 0 0 0 0 0 0 0 0 0 0 0 0 0 0 0 0 0 0 0 0 0 0 0
0 0 0 0 0 0 0 0 0 0 0 0 0 0 0 0 0 0 0 0 0 0 0 0 0 0 0 0 0 0 0 0 0 0 0 0 0 0 0 0 0 0 0 0
0 0 0 0 0 0 0 0 0 0 0 0 0 0 0 0 0 0 0 0 0 0 0 0 0 0 0 0 0 0 0 0 0 0 0 0 0 0 0 0 0 0 0 0
0 0 0 0 0 0 0 0 0 0 0 0 0 0 0 0 0 0 0 0 0 0 0 0 0 0 0 0 0 0 0 0 0 0 0 0 0 0 0 0 0 0 0 0
0 0 0 0 0 0 0 0 0 0 0 0 0 0 0 0 0 0 0 0 0 0 0 0 0 0 0 0 0 0 0 0 0 0 0 0 0 0 0 0 0 0 0 0
0 0 0 0 0 0 0 0 0 0 0 0 0 0 0 0 0 0 0 0 0 0 0 0 0 0 0 0 0 0 0 0 0 0 0 0 0 0 0 0 0 0 0 0
0 0 0 0 0 0 0 0 0 0 0 0 0 0 0 0 0 0 0 0 0 0 0 0 0 0 0 0 0 0 0 0 0 0 0 0 0 0 0 0 0 0 0 0
0 0 0 0 0 0 0 0 0 0 0 0 0 0 0 0 0 0 0 0 0 0 0 0 0 0 0 0 0 0 0 0 0 0 0 0 0 0 0 0 0 0 0 0
0 0 0 0 0 0 0 0 0 0 0 0 0 0 0 0 0 0 0 0 0 0 0 0 0 0 0 0 0 0 0 0 0 0 0 0 0 0 0 0 0 0 0 0
0 0 0 0 0 0 0 0 0 0 0 0 0 0 0 0 0 0 0 0 0 0 0 0 0 0 0 0 0 0 0 0 0 0 0 0 0 0 0 0 0 0 0 0
0 0 0 0 0 0 0 0 0 0 0 0 0 0 0 0 0 0 0 0 0 0 0 0 0 0 0 0 0 0 0 0 0 0 0 0 0 0 0 0 0 0 0 0
0 0 0 0 0 0 0 0 0 0 0 0 0 0 0 0 0 0 0 0 0 0 0 0 0 0 0 0 0 0 0 0 0 0 0 0 0 0 0 0 0 0 0 0
0 0 0 0 0 0 0 0 0 0 0 0 0 0 0 0 0 0 0 0 0 0 0 0 0 0 0 0 0 0 0 0 0 0 0 0 0 0 0 0 0 0 0 0
0 0 0 0 0 0 0 0 0 0 0 0 0 0 0 0 0 0 0 0 0 0 0 0 0 0 0 0 0 0 0 0 0 0 0 0 0 0 0 0 0 0 0 0
0 0 0 0 0 0 0 0 0 0 0 0 0 0 0 0 0 0 0 0 0 0 0 0 0 0 0 0 0 0 0 0 0 0 0 0 0 0 0 0 0 0 0 0
0 0 0 0 0 0 0 0 0 0 0 0 0 0 0 0 0 0 0 0 0 0 0 0 0 0 0 0 0 0 0 0 0 0 0 0 0 0 0 0 0 0 0 0
0 0 0 0 0 0 0 0 0 0 0 0 0 0 0 0 0 0 0 0 0 0 0 0 0 0 0 0 0 0 0 0 0 0 0 0 0 0 0 0 0 0 0 0
0 0 0 0 0 0 0 0 0 0 0 0 0 0 0 0 0 0 0 0 0 0 0 0 0 0 0 0 0 0 0 0 0 0 0 0 0 0 0 0 0 0 0 0
0 0 0 0 0 0 0 0 0 0 0 0 0 0 0 0 0 0 0 0 0 0 0 0 0 0 0 0 0 0 0 0 0 0 0 0 0 0 0 0 0 0 0 0
Wind_Speed
1 3 3 7 7 5 3 4 6 6 4 8 12 17 15 9 11 12 12 13 16 19 13 11 12 12 12 12 12 11 10 8 6 3 2 2 2 2 2 2 3 3 3 3
3 3 5 3 3 3 3 4 5 4 2 6 8 15 14 10 13 13 16 17 18 15 11 12 13 13 15 15 14 12 11 10 8 5 4 3 3 3 3 2 2 3 3 3
4 5 2 2 3 3 3 4 4 3 3 3 5 12 7 4 5 8 9 12 13 17 17 15 16 17 16 16 16 14 13 11 9 7 4 2 1 1 1 2 2 3 3 3
3 2 2 2 3 3 4 2 1 1 2 5 1 7 10 4 5 9 13 13 15 16 16 15 17 17 18 18 14 13 13 11 10 9 6 6 5 4 4 3 3 4 4 4
4 3 3 4 4 3 4 1 1 0 1 4 3 4 13 3 7 11 13 16 17 16 16 16 18 19 17 15 14 12 12 11 10 9 9 7 5 5 3 3 4 4 4 4
5 2 3 4 1 1 1 3 3 4 3 5 6 6 11 7 10 9 9 13 16 15 14 14 13 12 12 12 12 12 13 12 11 10 9 9 8 7 5 5 4 4 3 4
4 3 2 1 0 1 3 4 4 4 2 7 3 5 14 10 9 9 9 11 12 11 11 11 12 14 14 15 15 14 14 13 12 11 10 10 9 8 8 7 6 5 4 4
3 6 4 3 4 4 3 6 5 4 5 7 4 9 13 6 6 6 7 6 6 8 9 12 14 15 16 17 17 16 16 13 12 12 11 9 9 6 6 7 6 6 5 5
3 6 1 1 1 3 2 4 5 4 3 5 8 10 13 4 4 4 5 5 8 9 10 11 11 13 15 17 18 18 17 14 13 12 10 9 9 8 7 7 6 5 5 5
4 5 4 1 1 1 2 3 4 3 3 6 9 8 8 7 9 9 8 10 12 10 9 10 11 13 14 15 14 14 15 15 12 12 11 9 9 9 8 6 7 7 7 6
2 3 4 2 6 7 5 4 5 3 4 4 7 12 9 8 9 10 13 13 13 12 12 12 12 12 11 10 12 14 14 12 12 12 10 9 8 8 7 7 7 7 6 7
3 3 5 8 5 4 7 7 8 5 6 5 5 15 8 9 9 9 11 10 9 10 10 10 10 10 11 13 13 15 14 13 13 12 10 10 8 8 7 7 7 7 7 7
4 3 4 7 2 2 4 5 6 4 3 5 6 15 6 4 7 7 9 10 9 9 9 8 9 11 14 15 15 15 15 14 12 11 11 10 9 8 8 8 7 7 7 7
4 5 7 8 7 4 5 5 6 7 6 8 15 20 18 12 9 9 9 10 9 9 9 9 11 13 14 14 15 15 15 13 12 12 11 11 11 10 9 8 7 7 7 7
4 5 7 10 10 7 10 14 12 15 14 15 17 17 27 17 8 9 10 10 9 10 10 12 13 13 13 13 14 14 14 13 13 13 13 13 10 9 8 7 7 7 7 8
4 4 3 7 7 7 10 18 18 18 17 20 21 25 25 12 6 9 11 10 11 12 12 13 13 13 14 16 16 15 15 14 13 14 14 11 9 9 9 8 7 7 7 7
6 5 2 6 5 6 12 15 13 9 10 11 19 22 15 10 11 10 9 9 11 14 13 13 14 15 16 17 17 18 16 14 14 14 12 11 11 10 9 8 7 7 7 7
9 6 3 4 4 10 13 4 6 9 12 13 14 14 11 11 8 8 10 12 14 14 13 12 12 13 14 13 14 13 12 13 14 14 13 12 11 11 9 8 8 8 6 6
5 7 4 2 5 12 13 9 5 7 11 11 15 18 16 8 6 10 12 11 14 14 12 11 10 11 10 12 12 12 13 13 14 15 15 14 12 11 10 9 9 7 6 7
3 3 4 4 6 11 13 3 2 2 10 9 8 12 10 0 3 9 9 7 10 10 10 9 7 7 9 10 12 14 15 15 18 17 15 13 12 12 11 10 9 6 6 7
4 3 6 8 9 15 12 2 4 4 10 5 4 8 6 7 11 10 9 9 10 11 11 9 7 8 10 10 13 15 16 19 18 13 12 12 12 12 11 9 7 6 6 6
11 9 9 7 8 16 7 7 10 12 5 5 5 7 8 10 12 13 13 13 13 12 11 9 8 10 8 10 14 16 19 16 11 11 12 12 12 10 9 8 7 6 6 6
10 12 10 15 15 8 6 12 9 4 7 9 9 11 10 12 14 15 14 14 13 12 11 8 9 10 8 11 16 19 16 12 13 14 13 12 11 10 9 9 8 6 6 5
8 6 6 10 13 12 11 11 12 13 15 16 15 14 13 15 17 17 15 13 12 12 10 8 8 10 11 12 16 16 11 13 14 15 14 12 11 10 9 8 7 6 6 6
8 6 8 15 12 10 11 11 13 13 12 14 15 14 13 14 16 16 15 13 12 11 9 7 9 12 14 12 14 13 11 15 15 14 13 12 11 10 10 9 8 8 7 7
9 11 15 23 16 14 14 9 12 14 15 15 16 16 13 11 13 13 13 11 10 10 9 8 10 12 12 10 13 13 13 15 16 14 13 11 10 9 8 8 7 12 11 13
Wind_Direction
72 82 219 222 205 215 218 235 261 263 197 185 233 256 264 209 214 225 220 216 219 224 219 200 193 185 179 178 177 176 173 172 160 155 165 186 229 249 260 248 233 237 250 265
27 258 231 198 201 229 242 269 274 283 199 206 263 270 266 215 210 216 217 219 222 226 217 205 194 189 187 185 184 181 180 177 174 169 168 177 194 225 233 242 245 249 257 267
228 244 207 199 229 249 266 244 256 283 338 274 306 298 280 247 224 230 225 222 223 222 220 209 200 197 194 193 189 187 184 179 177 170 155 158 161 271 264 249 248 255 260 264
256 240 207 219 242 207 261 234 250 303 345 295 269 296 289 264 259 241 233 227 228 226 222 213 205 201 201 198 190 186 181 179 177 170 169 173 190 210 223 223 235 259 260 265
267 214 212 231 236 198 230 211 257 280 229 301 261 233 281 286 266 253 235 229 231 227 220 216 209 206 202 193 187 184 179 181 179 177 179 181 200 212 223 233 249 257 261 261
245 231 210 218 210 183 95 47 44 49 67 286 229 190 274 236 222 243 237 226 228 226 220 220 210 198 193 184 183 181 181 186 183 183 183 188 200 210 222 236 245 251 252 258
302 277 241 161 174 93 85 72 360 332 333 257 239 215 251 245 224 221 228 228 226 219 212 210 200 194 190 186 187 186 186 189 188 187 191 195 200 204 215 225 232 240 247 251
295 290 239 205 195 192 187 147 172 245 260 289 293 240 254 258 252 240 242 244 234 221 213 210 205 198 193 190 189 188 190 192 190 192 197 198 199 202 214 220 221 229 235 244
229 269 266 182 173 181 207 196 177 164 276 276 273 279 295 252 263 250 248 251 244 232 220 215 206 198 194 192 192 191 191 193 193 195 194 198 201 205 214 221 223 231 237 247
187 269 282 260 44 254 197 151 107 150 254 279 287 271 257 269 249 244 245 244 246 241 231 221 210 203 198 196 193 190 192 195 193 192 195 201 203 207 212 217 227 234 241 246
182 227 291 284 214 203 173 190 179 179 188 205 280 273 232 241 239 228 233 236 239 235 229 222 214 205 197 189 189 192 195 194 193 194 197 200 201 205 210 218 228 234 240 243
166 148 263 255 240 200 190 197 163 180 235 207 231 271 257 247 257 237 240 244 242 237 232 221 209 195 193 194 194 196 196 197 198 194 194 200 201 203 212 223 231 233 240 244
151 140 313 325 313 224 229 219 192 174 175 202 217 263 280 278 276 259 253 259 258 251 240 221 204 202 203 201 200 199 199 200 196 191 193 199 202 206 216 224 229 233 239 247
125 180 200 229 237 202 234 234 200 179 207 230 231 254 274 270 271 274 265 260 261 254 239 221 216 214 210 205 202 200 201 198 193 191 195 202 206 209 214 220 226 232 238 246
143 222 239 255 261 253 248 250 225 214 218 227 248 249 264 271 263 260 262 265 266 258 242 228 224 220 213 208 205 203 201 196 192 193 199 207 206 205 209 217 226 232 238 248
170 219 259 275 267 257 262 259 246 236 235 240 256 267 266 279 277 269 268 265 262 258 250 239 231 223 216 211 207 203 202 196 190 196 203 202 198 202 210 217 223 232 241 250
185 186 217 272 303 330 272 248 230 218 219 213 238 251 274 284 271 267 268 263 258 261 259 247 234 225 220 212 205 203 200 189 190 198 201 197 198 205 211 216 221 231 240 247
164 164 191 275 339 247 247 244 210 222 244 225 241 260 268 255 268 269 259 257 265 264 261 254 240 230 222 211 203 198 186 185 192 197 200 198 198 206 207 211 224 232 234 241
162 159 182 212 258 274 286 274 207 211 272 234 234 254 263 277 316 287 262 239 244 255 257 253 241 229 216 205 194 183 186 189 194 200 201 200 198 202 204 214 223 226 230 242
96 132 171 188 221 248 253 241 148 136 282 260 215 243 262 84 302 277 274 266 258 260 260 258 249 223 213 204 181 184 192 194 203 204 201 196 195 199 206 213 218 219 225 240
155 181 201 215 233 259 260 209 135 207 251 274 212 235 242 212 230 256 282 283 274 271 270 262 241 226 219 192 179 193 197 206 206 196 190 191 195 200 204 208 210 215 227 239
181 183 204 191 213 252 231 156 195 227 266 289 276 262 257 257 267 277 281 280 281 278 272 256 240 239 219 185 186 200 210 208 186 180 187 192 194 197 201 202 209 211 219 236
204 200 201 201 221 244 189 208 234 271 282 278 277 281 281 280 279 280 280 280 281 275 271 254 238 243 223 197 196 209 212 185 175 181 190 192 192 196 196 197 204 209 213 226
236 220 231 252 256 259 260 258 265 263 263 273 278 281 281 277 280 284 284 284 282 278 271 259 241 239 234 212 210 216 196 174 179 187 190 188 190 195 198 200 202 207 212 219
223 215 244 262 269 280 262 253 263 275 280 284 287 286 282 280 282 283 285 284 281 279 274 254 238 241 240 220 215 210 185 175 183 189 190 189 192 193 197 202 205 207 211 209
216 232 250 265 271 270 279 279 284 287 289 293 298 300 298 289 284 287 287 285 284 284 280 268 252 247 246 225 216 204 188 183 183 188 190 190 190 191 193 198 210 225 224 235